Location: High Cliff State Park
(44.1557°N, 88.2948°W)
Time: 06:05:21
(UTC-05:00)

Amateur Radio Satellites - All Passes

Search period start: 28 August 2014 05:35
Search period end: 29 August 2014 05:35
Location: High Cliff State Park, 44.1557°N, 88.2948°W

Satellite Date Start Highest point End Downlink Frequencies (MHz)
Time Altitude Azimuth
AO-7 28 Aug 05:46:06 05:54:26 88° 290° (WNW) 06:02:44 29.400 - 29.500 MHz
Hamsat 28 Aug 05:46:40 05:49:15 15° 90° (E) 05:51:49 145.90 MHz
UOSAT-12 28 Aug 05:47:05 05:50:47 24° 113° (ESE) 05:54:34 437.025 FM, 437.400 FM
Uosat F 28 Aug 05:55:18 06:00:08 51° 290° (WNW) 06:04:57 435.120 FM
STRAND 1 28 Aug 06:13:36 06:18:25 44° 69° (ENE) 06:23:15 ?
JAS-2 28 Aug 06:33:03 06:37:58 41° 99° (E) 06:43:08 435.800 - 435.900 CW/SSB, 435.910 FM
Saudisat 1A 28 Aug 06:47:31 06:50:43 19° 38° (NE) 06:53:55 436.775 MHz
KITSAT 1 28 Aug 06:52:31 06:58:36 22° 27° (NNE) 07:04:39 435.175 FM
SO-50 28 Aug 06:53:22 06:56:01 15° 327° (NNW) 06:58:42 436.795 FM
SO-67 28 Aug 07:06:04 07:07:51 14° 91° (E) 07:09:39 435.3500 MHz FM
RS-15 28 Aug 07:13:53 07:23:01 31° 105° (ESE) 07:31:59 29.354 - 29.394 USB, Beacon 29.352 USB
Hamsat 28 Aug 07:21:16 07:25:32 53° 287° (WNW) 07:29:44 145.90 MHz
UOSAT-12 28 Aug 07:26:13 07:30:41 46° 311° (NW) 07:35:15 437.025 FM, 437.400 FM
AO-7 28 Aug 07:40:08 07:46:10 23° 310° (NW) 07:52:12 29.400 - 29.500 MHz
STRAND 1 28 Aug 07:53:42 07:57:48 24° 266° (W) 08:01:54 ?
JAS-2 28 Aug 08:18:42 08:22:57 26° 295° (WNW) 08:27:20 435.800 - 435.900 CW/SSB, 435.910 FM
Saudisat 1A 28 Aug 08:26:22 08:30:47 71° 238° (WSW) 08:35:09 436.775 MHz
SO-67 28 Aug 08:37:51 08:41:05 37° 288° (WNW) 08:44:17 435.3500 MHz FM
HO-68 28 Aug 08:40:31 08:45:23 19° 90° (E) 08:50:12 435.675 MHz FM
KITSAT 1 28 Aug 08:47:40 08:55:43 65° 53° (NE) 09:03:43 435.175 FM
UOSAT-12 28 Aug 09:10:26 09:12:02 12° 333° (NNW) 09:13:39 437.025 FM, 437.400 FM
RS-15 28 Aug 09:23:14 09:34:18 77° 307° (NW) 09:45:18 29.354 - 29.394 USB, Beacon 29.352 USB
HO-68 28 Aug 10:26:41 10:33:53 83° 288° (WNW) 10:41:02 435.675 MHz FM
UKube-1 28 Aug 10:30:52 10:35:15 86° 104° (ESE) 10:39:35 145.840 MHz, 145.915 MHz
Oscar 11 28 Aug 10:39:52 10:44:15 72° 102° (ESE) 10:48:36 145.825 FM, Beacon 2401.500 USB
KITSAT 1 28 Aug 10:43:45 10:50:36 32° 253° (WSW) 10:57:26 435.175 FM
AO-40 28 Aug 10:52:00 05:34:51 29° 221° (SW) 11:18:40 Beacon 2401.320
FUNcube-1 28 Aug 10:57:57 11:02:17 45° 99° (E) 11:06:40 145.950 - 145.970 MHz USB
ISS 28 Aug 11:12:53 11:15:31 22° 136° (SE) 11:18:10 145.800 FM
RS-15 28 Aug 11:39:18 11:48:44 32° 336° (NNW) 11:58:14 29.354 - 29.394 USB, Beacon 29.352 USB
JAS-1B 28 Aug 11:46:19 11:50:21 14° 46° (NE) 11:54:12 435.800 - 435.900 CW/SSB
SO-50 28 Aug 12:00:16 12:04:13 25° 41° (NE) 12:08:12 436.795 FM
UKube-1 28 Aug 12:09:35 12:10:47 11° 302° (WNW) 12:11:58 145.840 MHz, 145.915 MHz
HO-68 28 Aug 12:15:57 12:20:34 19° 308° (NW) 12:25:12 435.675 MHz FM
Oscar 11 28 Aug 12:17:51 12:19:52 13° 299° (WNW) 12:21:52 145.825 FM, Beacon 2401.500 USB
Oscar 19 28 Aug 12:18:02 12:21:38 20° 61° (ENE) 12:25:16 437.125 CW, 437.150 USB
FUNcube-1 28 Aug 12:35:05 12:38:23 21° 295° (WNW) 12:41:44 145.950 - 145.970 MHz USB
ITAMSAT 1 28 Aug 12:45:03 12:48:07 16° 59° (ENE) 12:51:10 435.822 SSB
ISS 28 Aug 12:48:45 12:52:02 57° 333° (NNW) 12:55:20 145.800 FM
Oscar 16 28 Aug 12:51:03 12:55:46 38° 68° (ENE) 13:00:31 437.025 USB, Beacon 2401.1428
Uribyol 2 28 Aug 12:54:55 12:58:37 20° 61° (ENE) 13:02:20 436.500 FM
AO-Echo 28 Aug 13:05:47 13:09:48 24° 65° (ENE) 13:13:44 ?
AO-27 28 Aug 13:11:51 13:16:09 27° 64° (ENE) 13:20:27 436.795 MHz FM
Gurwin Techsat 1B 28 Aug 13:26:11 13:29:36 18° 60° (ENE) 13:33:01 435.225 FM
MaSat-1 28 Aug 13:27:32 13:31:51 33° 107° (ESE) 13:36:25 437.345 MHz
JAS-1B 28 Aug 13:29:46 13:39:04 51° 66° (ENE) 13:47:28 435.800 - 435.900 CW/SSB
SO-50 28 Aug 13:40:24 13:45:06 56° 240° (WSW) 13:49:50 436.795 FM
Oscar 19 28 Aug 13:55:25 14:00:30 61° 259° (W) 14:05:40 437.125 CW, 437.150 USB
RS-15 28 Aug 13:56:49 14:05:38 26° 11° (NNE) 14:14:36 29.354 - 29.394 USB, Beacon 29.352 USB
UOSAT-12 28 Aug 14:14:25 14:18:48 36° 46° (NE) 14:23:07 437.025 FM, 437.400 FM
TMSAT-1 28 Aug 14:17:47 14:22:31 35° 67° (ENE) 14:27:17 436.925 FM
ITAMSAT 1 28 Aug 14:21:49 14:26:59 77° 257° (WSW) 14:32:11 435.822 SSB
ISS 28 Aug 14:26:31 14:29:16 23° 353° (N) 14:32:01 145.800 FM
Oscar 16 28 Aug 14:30:45 14:35:11 29° 265° (W) 14:39:40 437.025 USB, Beacon 2401.1428
Uribyol 2 28 Aug 14:32:36 14:37:40 58° 259° (W) 14:42:47 436.500 FM
AO-Echo 28 Aug 14:43:31 14:48:21 44° 261° (W) 14:53:04 ?
AO-27 28 Aug 14:50:35 14:55:28 42° 262° (W) 15:00:23 436.795 MHz FM
AO-7 28 Aug 14:55:13 15:02:31 36° 57° (ENE) 15:09:47 29.400 - 29.500 MHz
Gurwin Techsat 1B 28 Aug 15:03:42 15:08:59 72° 257° (WSW) 15:14:19 435.225 FM
MaSat-1 28 Aug 15:04:13 15:08:50 38° 306° (NW) 15:13:39 437.345 MHz
JAS-1B 28 Aug 15:20:10 15:29:30 47° 263° (W) 15:38:06 435.800 - 435.900 CW/SSB
Uosat F 28 Aug 15:31:54 15:36:22 34° 67° (ENE) 15:40:51 435.120 FM
UOSAT-12 28 Aug 15:54:41 15:58:55 33° 244° (WSW) 16:03:06 437.025 FM, 437.400 FM
TMSAT-1 28 Aug 15:57:43 16:02:26 33° 264° (W) 16:07:11 436.925 FM
ISS 28 Aug 16:03:49 16:06:43 27° 13° (NNE) 16:09:38 145.800 FM
RS-15 28 Aug 16:10:32 16:21:16 53° 43° (NE) 16:32:21 29.354 - 29.394 USB, Beacon 29.352 USB
Oscar 10/S400 28 Aug 16:37:14 16:51:05 22° 142° (SE) 17:07:33 145.825 - 145.975 CW/USB, Beacon 145.810 USB
Sapphire 28 Aug 16:39:34 16:43:13 19° 105° (ESE) 16:46:53 437.095 MHz 1200 baud AX-25 AFSK
Hamsat 28 Aug 16:42:09 16:44:31 15° 62° (ENE) 16:46:53 145.90 MHz
OPAL 28 Aug 16:43:08 16:47:34 28° 97° (E) 16:51:59 ?
AO-7 28 Aug 16:46:41 16:54:53 60° 257° (WSW) 17:03:08 29.400 - 29.500 MHz
JAS-2 28 Aug 16:47:53 16:52:33 24° 63° (ENE) 16:56:53 435.800 - 435.900 CW/SSB, 435.910 FM
PCSat 28 Aug 17:07:49 17:12:40 35° 111° (ESE) 17:17:33 145.825 MHz
Uosat F 28 Aug 17:10:44 17:15:09 31° 264° (W) 17:19:36 435.120 FM
ISS 28 Aug 17:40:26 17:43:46 86° 212° (SSW) 17:47:07 145.800 FM
Hamsat 28 Aug 18:15:42 18:19:58 62° 259° (W) 18:24:18 145.90 MHz
Sapphire 28 Aug 18:20:42 18:26:05 68° 304° (WNW) 18:31:30 437.095 MHz 1200 baud AX-25 AFSK
OPAL 28 Aug 18:21:40 18:26:33 41° 294° (WNW) 18:31:25 ?
RS-15 28 Aug 18:23:09 18:33:44 54° 247° (WSW) 18:44:45 29.354 - 29.394 USB, Beacon 29.352 USB
STRAND 1 28 Aug 18:24:29 18:26:42 13° 89° (E) 18:28:56 ?
JAS-2 28 Aug 18:31:12 18:37:23 57° 259° (W) 18:42:55 435.800 - 435.900 CW/SSB, 435.910 FM
AO-7 28 Aug 18:48:02 18:49:23 10° 276° (W) 18:50:44 29.400 - 29.500 MHz
PCSat 28 Aug 18:50:59 18:56:02 39° 310° (NW) 19:01:07 145.825 MHz
SO-67 28 Aug 19:11:49 19:15:17 86° 77° (ENE) 19:18:46 435.3500 MHz FM
HO-68 28 Aug 19:11:54 19:16:40 20° 52° (NE) 19:21:25 435.675 MHz FM
ISS 28 Aug 19:18:37 19:20:02 12° 229° (SW) 19:21:28 145.800 FM
UKube-1 28 Aug 19:55:38 19:56:30 11° 58° (ENE) 19:57:23 145.840 MHz, 145.915 MHz
STRAND 1 28 Aug 20:01:24 20:06:31 81° 286° (WNW) 20:11:37 ?
Sapphire 28 Aug 20:07:25 20:10:34 15° 325° (NW) 20:13:43 437.095 MHz 1200 baud AX-25 AFSK
PCSat 28 Aug 20:40:16 20:41:04 10° 333° (NNW) 20:41:52 145.825 MHz
HO-68 28 Aug 20:56:15 21:03:24 86° 72° (ENE) 21:10:35 435.675 MHz FM
UKube-1 28 Aug 21:27:40 21:32:01 90° 254° (WSW) 21:36:23 145.840 MHz, 145.915 MHz
Oscar 11 28 Aug 21:36:10 21:40:27 67° 74° (ENE) 21:44:48 145.825 FM, Beacon 2401.500 USB
STRAND 1 28 Aug 21:43:00 21:44:53 12° 304° (NW) 21:46:46 ?
MaSat-1 28 Aug 21:44:26 21:47:04 15° 41° (NE) 21:49:34 437.345 MHz
FUNcube-1 28 Aug 21:56:08 22:00:03 41° 71° (ENE) 22:04:04 145.950 - 145.970 MHz USB
Saudisat 1A 28 Aug 22:35:13 22:38:28 21° 112° (ESE) 22:41:45 436.775 MHz
HO-68 28 Aug 22:47:19 22:51:57 18° 271° (W) 22:56:37 435.675 MHz FM
Oscar 11 28 Aug 23:15:25 23:17:06 12° 271° (W) 23:18:49 145.825 FM, Beacon 2401.500 USB
KITSAT 1 28 Aug 23:18:12 23:25:16 35° 108° (ESE) 23:32:21 435.175 FM
MaSat-1 28 Aug 23:20:14 23:25:00 87° 63° (ENE) 23:29:06 437.345 MHz
FUNcube-1 28 Aug 23:33:49 23:36:41 18° 268° (W) 23:39:35 145.950 - 145.970 MHz USB
PCSat 29 Aug 00:12:36 00:13:56 11° 28° (NNE) 00:15:16 145.825 MHz
Saudisat 1A 29 Aug 00:13:27 00:17:44 49° 310° (NW) 00:22:03 436.775 MHz
Oscar 16 29 Aug 01:03:28 01:05:04 11° 87° (E) 01:06:41 437.025 USB, Beacon 2401.1428
KITSAT 1 29 Aug 01:12:17 01:20:16 60° 309° (NW) 01:28:18 435.175 FM
Sapphire 29 Aug 01:24:20 01:28:50 25° 44° (NE) 01:33:17 437.095 MHz 1200 baud AX-25 AFSK
PCSat 29 Aug 01:53:45 01:58:54 41° 51° (NE) 02:04:01 145.825 MHz
Saudisat 1A 29 Aug 01:57:09 01:58:23 11° 331° (NNW) 01:59:38 436.775 MHz
Oscar 19 29 Aug 02:05:32 02:10:29 42° 98° (E) 02:15:24 437.125 CW, 437.150 USB
ITAMSAT 1 29 Aug 02:33:26 02:38:07 34° 97° (E) 02:42:48 435.822 SSB
TMSAT-1 29 Aug 02:34:08 02:35:52 12° 87° (E) 02:37:36 436.925 FM
Oscar 16 29 Aug 02:39:54 02:45:09 89° 104° (ESE) 02:50:21 437.025 USB, Beacon 2401.1428
Uribyol 2 29 Aug 02:43:45 02:48:43 45° 99° (E) 02:53:41 436.500 FM
AO-Echo 29 Aug 02:48:58 02:53:34 51° 100° (E) 02:58:08 ?
AO-27 29 Aug 03:01:39 03:06:48 62° 102° (ESE) 03:11:56 436.795 MHz FM
JAS-1B 29 Aug 03:05:46 03:12:40 57° 99° (E) 03:18:33 435.800 - 435.900 CW/SSB
Sapphire 29 Aug 03:07:18 03:12:40 61° 244° (WSW) 03:17:59 437.095 MHz 1200 baud AX-25 AFSK
KITSAT 1 29 Aug 03:11:37 03:17:32 21° 334° (NNW) 03:23:28 435.175 FM
Gurwin Techsat 1B 29 Aug 03:18:31 03:23:32 41° 98° (E) 03:28:31 435.225 FM
PCSat 29 Aug 03:37:25 03:42:12 33° 250° (WSW) 03:46:58 145.825 MHz
Oscar 19 29 Aug 03:45:18 03:49:37 27° 296° (WNW) 03:53:54 437.125 CW, 437.150 USB
SO-50 29 Aug 03:57:06 04:01:05 33° 116° (ESE) 04:05:10 436.795 FM
OPAL 29 Aug 03:59:19 04:04:15 58° 69° (ENE) 04:09:18 ?
TMSAT-1 29 Aug 04:11:12 04:16:32 89° 104° (ESE) 04:21:50 436.925 FM
ITAMSAT 1 29 Aug 04:12:59 04:17:34 33° 294° (WNW) 04:22:09 435.822 SSB
Oscar 16 29 Aug 04:21:10 04:23:45 14° 303° (WNW) 04:26:21 437.025 USB, Beacon 2401.1428
Uribyol 2 29 Aug 04:23:44 04:27:57 26° 296° (WNW) 04:32:10 436.500 FM
AO-Echo 29 Aug 04:28:42 04:31:59 19° 297° (WNW) 04:35:16 ?
AO-27 29 Aug 04:42:15 04:45:51 19° 299° (WNW) 04:49:26 436.795 MHz FM
AO-7 29 Aug 04:46:29 04:54:19 44° 99° (E) 05:02:05 29.400 - 29.500 MHz
JAS-1B 29 Aug 04:57:03 05:02:44 27° 303° (WNW) 05:07:47 435.800 - 435.900 CW/SSB
Gurwin Techsat 1B 29 Aug 04:58:50 05:03:19 28° 295° (WNW) 05:07:47 435.225 FM
KITSAT 1 29 Aug 05:12:18 05:16:38 15° 5° (N) 05:20:58 435.175 FM
Uosat F 29 Aug 05:16:04 05:21:05 72° 103° (ESE) 05:26:04 435.120 FM
